Hourly Weather Roundup
Issued by NWS Central Illinois

Home | Current Version | Previous Version | Text Only | Print | Product List | Glossary On
Versions: 1 2 3 4 5 6 7 8 9 10 11 12 13 14 15 16 17 18 19 20 21 22 23 24 25 26 27 28 29 30 31 32 33 34 35 36 37 38 39 40 41 42 43 44 45 46 47 48 49 50
000
NZUS43 KILX 301110
HWRILX

AREA WEATHER ROUNDUP
NATIONAL WEATHER SERVICE, LINCOLN IL
600 AM CDT TUE SEP 30 2014


CITY           SKY/WX    TMP DP  RH WIND       PRES   REMARKS
BLOOMINGTON    CLOUDY    56  54  93 NE16        N/A
CHAMPAIGN      NOT AVBL
DECATUR        CLOUDY    58  57  97 NE7       29.98S FOG
FLORA          CLEAR     54  53  97 CALM      29.95S
GALESBURG      CLOUDY    55  53  93 NE8       30.00S
JACKSONVILLE   CLEAR     60  58  93 NE6       29.98S FOG
LACON          CLOUDY    55  51  86 E8        30.01S
LAWRENCEVILLE  CLEAR     57  55  93 CALM      29.94S
LITCHFIELD     CLEAR     57  53  88 CALM      29.96S
$$


CITY           SKY/WX    TMP DP  RH WIND       PRES   REMARKS
LINCOLN        CLOUDY    59  57  94 NE6       29.97S FOG
MACOMB         CLOUDY    57  56  98 NE9       30.02R FOG
MATTOON        CLOUDY    58  57  97 N13       29.97R
MT CARMEL AP   CLEAR     55  52  88 CALM      29.94S
OLNEY-NOBLE AP CLEAR     52  52 100 CALM      29.95S FOG
PARIS          CLOUDY    58  58 100 N5        29.98S FOG
PEORIA         CLOUDY    60  54  80 NE13      30.00S
PONTIAC        CLOUDY    55  52  88 NE8       30.02R
RANTOUL        CLOUDY    58  54  84 NE9       30.00S
ROBINSON       CLEAR     55  54  97 CALM      29.96R
SPRINGFIELD    FOG       60  59  96 NE8       29.98S VSB 1/2
TAYLORVILLE    CLEAR     55  54  94 NE6       29.97S
$$

...REGIONAL REPORTS...


CITY           SKY/WX    TMP DP  RH WIND       PRES   REMARKS
CHICAGO O`HARE DRIZZLE   48  46  93 N9        30.05R FOG
KANKAKEE       MOCLDY    54  49  83 N8        30.03S
MOLINE         NOT AVBL
MOUNT VERNON   NOT AVBL
PITTSFIELD     CLEAR     63  56  80 N3        29.97R
QUINCY         CLEAR     57  55  93 NE7       29.96S FOG
ROCKFORD       DRIZZLE   49  45  86 E8        30.08S
$$


CITY           SKY/WX    TMP DP  RH WIND       PRES   REMARKS
BURLINGTON     CLOUDY    57  55  93 NE8       29.99S
CEDAR RAPIDS   CLOUDY    54  52  94 E12       30.02S
DES MOINES     CLOUDY    58  55  90 E9        29.96F
KIRKSVILLE     CLEAR     59  58  96 NE6       29.97S FOG
OTTUMWA        CLOUDY    58  56  93 E12       29.99R
ST LOUIS       CLEAR     64  58  80 CALM      29.96S
$$


CITY           SKY/WX    TMP DP  RH WIND       PRES   REMARKS
TERRE HAUTE    FOG       58  57  97 N7        29.96S VSB 1/2
EVANSVILLE     CLEAR     58  54  86 CALM      29.95R
INDIANAPOLIS   CLOUDY    58  57  97 N15       29.96R FOG
LAFAYETTE      CLOUDY    55  51  86 N10       30.00R
MADISON        CLOUDY    45  40  82 NE13      30.10R
MILWAUKEE      CLOUDY    46  39  76 NW10      30.07S
$$




USA.gov is the U.S. government's official web portal to all federal, state and local government web resources and services.